EDT,Max TemperatureF,Mean TemperatureF,Min TemperatureF,Max Dew PointF,MeanDew PointF,Min DewpointF,Max Humidity, Mean Humidity, Min Humidity, Max Sea Level PressureIn, Mean Sea Level PressureIn, Min Sea Level PressureIn, Max VisibilityMiles, Mean VisibilityMiles, Min VisibilityMiles, Max Wind SpeedMPH, Mean Wind SpeedMPH, Max Gust SpeedMPH,PrecipitationIn, CloudCover, Events, WindDirDegrees
2013-7-1,78,74,71,73,71,70,100,92,83,30.11,30.03,29.96,10,6,1,14,7,24,0.03,7,Rain,189
2013-7-2,79,75,72,72,71,70,94,90,82,30.22,30.16,30.11,10,8,3,14,8,23,0.01,7,Rain,204
2013-7-3,78,74,71,73,71,69,94,89,81,30.28,30.25,30.21,10,8,1,15,8,21,0.00,6,Rain,223
2013-7-4,84,78,73,73,72,70,94,85,67,30.28,30.24,30.20,10,9,6,15,10,23,0.00,4,,230
2013-7-5,84,78,72,72,71,69,91,79,65,30.23,30.19,30.13,10,10,8,16,9,22,0.00,0,,227
2013-7-6,90,82,73,73,72,69,91,76,55,30.15,30.10,30.05,10,10,9,13,8,21,0.00,0,,224
2013-7-7,87,78,70,73,71,68,93,79,63,30.07,30.02,29.97,10,10,10,12,4,18,0.00,0,,221
2013-7-8,86,77,70,70,69,67,90,76,58,30.06,30.02,29.98,10,10,10,16,6,24,0.00,0,,223
2013-7-9,86,77,70,72,70,67,93,80,58,30.09,30.06,30.04,10,10,10,10,6,,0.00,2,,209
2013-7-10,82,76,71,73,71,70,94,85,74,30.05,29.95,29.85,10,10,2,14,7,24,0.00,6,,210
2013-7-11,80,74,68,74,71,65,94,89,77,29.93,29.87,29.84,10,9,2,12,7,22,0.03,5,Rain,214
2013-7-12,79,72,66,68,66,65,93,82,65,30.14,30.05,29.93,10,10,2,14,7,23,0.09,6,Rain,52
2013-7-13,78,73,69,74,71,66,100,93,83,30.31,30.25,30.15,10,7,0,9,6,17,0.23,8,Rain,98
2013-7-14,90,80,72,74,72,70,100,81,57,30.33,30.31,30.25,10,6,0,14,5,18,0.01,6,Rain,251
2013-7-15,95,82,72,72,69,65,91,65,41,30.24,30.19,30.14,10,10,10,15,5,24,0.00,1,,316
2013-7-16,95,82,70,69,66,64,84,61,37,30.18,30.15,30.13,10,10,10,13,6,20,0.00,0,,354
2013-7-17,91,78,69,74,71,65,90,75,55,30.19,30.15,30.09,10,10,10,9,5,,0.00,0,,181
2013-7-18,97,86,75,75,72,71,91,68,44,30.08,30.03,29.98,10,10,10,10,5,16,0.00,1,,232
2013-7-19,91,84,77,76,74,72,90,77,63,29.99,29.91,29.83,10,10,10,20,8,29,0.00,0,,223
2013-7-20,88,81,75,74,72,67,91,75,57,29.86,29.80,29.74,10,10,10,20,11,28,0.00,1,Rain,229
2013-7-21,84,77,72,70,65,59,91,69,44,29.99,29.93,29.86,10,10,10,12,4,17,0.00,2,,85
2013-7-22,84,78,73,74,72,69,100,88,69,29.98,29.94,29.85,10,9,2,10,5,16,0.02,6,Rain,96
2013-7-23,86,76,69,76,72,66,100,87,63,29.82,29.67,29.60,10,8,2,18,7,25,0.71,6,Rain,208
2013-7-24,87,75,64,73,66,58,97,74,53,29.91,29.72,29.62,10,8,0,13,3,18,0.00,3,Fog,336
2013-7-25,71,66,62,61,59,55,94,83,61,30.06,30.02,29.93,10,10,6,14,11,23,0.28,8,Rain,15
2013-7-26,73,66,60,65,62,59,94,88,68,30.08,30.01,29.96,10,9,4,14,9,22,0.46,6,Rain,336
2013-7-27,79,72,66,68,66,63,94,83,64,30.09,30.05,29.99,10,9,4,10,6,,0.00,2,,205
2013-7-28,80,74,68,70,67,63,96,84,62,30.03,29.99,29.96,10,7,2,9,4,,0.00,4,,334
2013-7-29,84,74,64,72,69,61,100,85,58,30.09,30.02,29.97,10,9,4,12,3,20,0.01,4,Rain,187
2013-7-30,82,70,57,58,55,52,90,61,36,30.16,30.13,30.09,10,10,10,15,6,22,0.00,0,,317
2013-7-31,81,66,53,62,58,50,93,69,47,30.17,30.12,30.08,10,10,10,10,3,,0.00,1,,233